Weather History for PAGS - December, 2013

Change the Weather History Date:

Monday, December 16, 2013

  Actual Average Record
Temperature  
Mean Temperature 30 °F -  
Max Temperature 33 °F 33 °F 51 °F (2003)
Min Temperature 28 °F 24 °F -1 °F (1984)
Degree Days  
Heating Degree Days 34    
Moisture  
Dew Point 29 °F    
Average Humidity 88    
Maximum Humidity 100    
Minimum Humidity 80    
Precipitation  
Precipitation 0.00 in - - ()
Sea Level Pressure  
Sea Level Pressure 29.86 in    
Wind  
Wind Speed 8 mph (SE)    
Max Wind Speed 14 mph    
Max Gust Speed 16 mph    
Visibility 9 miles    
Events      
Averages and records for this station are not official NWS values.
T = Trace of Precipitation, MM = Missing Value Source: NWS Daily Summary

Daily Weather History Graph

Daily Weather History Graph

Search for Another Location

Airport or City:

Trip Planner

Search our weather history database for the weather conditions in past years. The results will help you decide how hot, cold, wet, or windy it might be!

Date:

Astronomy

Dec. 16, 2013 Rise Set
Actual Time 8:47 AM AKST 3:09 PM AKST
Civil Twilight 7:54 AM AKST 4:02 PM AKST
Nautical Twilight 7:01 AM AKST 4:56 PM AKST
Astronomical Twilight 6:12 AM AKST 5:45 PM AKST
Moon 3:21 PM AKST (12/16) 7:47 AM AKST (12/16)
Length of Visible Light 8h 08m
Length of Day
6h 22m
Full, 100% of the Moon is Illuminated
Dec 16
Full
Dec 17
Full
Dec 25
Last Quarter
Jan 1
New
Jan 7
First Quarter

Hourly Weather History & Observations

Time (AKST) Temp. Windchill Dew Point Humidity Pressure Visibility Wind Dir Wind Speed Gust Speed Precip Events Conditions
12:16 AM 33.8 °F 25.3 °F 28.4 °F 81% 29.89 in 10.0 mi SE 11.5 mph - N/A   Overcast
12:36 AM 33.8 °F 25.8 °F 30.2 °F 87% 29.91 in 4.0 mi South 10.4 mph 16.1 mph N/A   Overcast
12:56 AM 32.0 °F 26.4 °F 28.4 °F 87% 29.92 in 2.5 mi South 5.8 mph - N/A   Overcast
1:16 AM 32.0 °F - 30.2 °F 93% 29.93 in 0.8 mi Calm Calm - N/A   Overcast
1:36 AM 30.2 °F - 28.4 °F 93% 29.92 in 2.0 mi Calm Calm - N/A   Overcast
1:56 AM 30.2 °F 23.4 °F 28.4 °F 93% 29.95 in 4.0 mi West 6.9 mph - N/A   Overcast
2:16 AM 30.2 °F 24.3 °F 30.2 °F 100% 29.95 in 1.0 mi South 5.8 mph - N/A   Overcast
2:36 AM 30.2 °F 25.4 °F 30.2 °F 100% 29.96 in 3.0 mi SE 4.6 mph - N/A   Overcast
2:56 AM 30.2 °F 25.4 °F 28.4 °F 93% 29.95 in 10.0 mi ESE 4.6 mph - N/A   Overcast
3:16 AM 30.2 °F 23.4 °F 28.4 °F 93% 29.96 in 10.0 mi SE 6.9 mph - N/A   Overcast
3:36 AM 32.0 °F 25.6 °F 28.4 °F 87% 29.96 in 10.0 mi SSE 6.9 mph - N/A   Overcast
3:56 AM 33.8 °F 27.7 °F 28.4 °F 81% 29.96 in 6.0 mi South 6.9 mph - N/A   Mostly Cloudy
4:16 AM 32.0 °F 26.4 °F 28.4 °F 87% 29.96 in 7.0 mi SSE 5.8 mph - N/A   Overcast
4:36 AM 33.8 °F 25.8 °F 28.4 °F 81% 29.96 in 7.0 mi SSE 10.4 mph - N/A   Overcast
4:56 AM 32.0 °F 24.8 °F 28.4 °F 87% 29.97 in 10.0 mi SE 8.1 mph - N/A   Overcast
5:16 AM 32.0 °F 23.0 °F 30.2 °F 93% 29.96 in 10.0 mi SE 11.5 mph - N/A   Overcast
5:36 AM 33.8 °F 25.3 °F 28.4 °F 81% 29.95 in 10.0 mi SE 11.5 mph - N/A   Overcast
5:56 AM 33.8 °F 27.0 °F 30.2 °F 87% 29.97 in 3.0 mi South 8.1 mph - N/A   Overcast
6:16 AM 32.0 °F 24.2 °F 28.4 °F 87% 29.98 in 2.0 mi SE 9.2 mph - N/A   Overcast
6:36 AM 32.0 °F 24.8 °F 30.2 °F 93% 29.98 in 10.0 mi SE 8.1 mph - N/A   Mostly Cloudy
6:56 AM 33.8 °F 27.0 °F 28.4 °F 81% 29.98 in 10.0 mi SSE 8.1 mph - N/A   Overcast
7:16 AM 32.0 °F 23.0 °F 28.4 °F 87% 29.98 in 3.0 mi SE 11.5 mph - N/A   Overcast
7:36 AM 32.0 °F 23.0 °F 30.2 °F 93% 29.98 in 9.0 mi ESE 11.5 mph - N/A   Overcast
7:56 AM 32.0 °F 23.6 °F 30.2 °F 93% 29.97 in 10.0 mi SE 10.4 mph - N/A   Overcast
8:16 AM 33.8 °F 25.3 °F 28.4 °F 81% 29.97 in 5.0 mi SSE 11.5 mph - N/A   Overcast
8:36 AM 32.0 °F 24.8 °F 30.2 °F 93% 29.98 in 9.0 mi SE 8.1 mph - N/A   Mostly Cloudy
8:56 AM 33.8 °F 25.3 °F 30.2 °F 87% 29.98 in 10.0 mi SE 11.5 mph - N/A   Overcast
9:16 AM 33.8 °F 25.3 °F 28.4 °F 81% 29.98 in 10.0 mi SE 11.5 mph - N/A   Overcast
9:36 AM 33.8 °F 25.8 °F 28.4 °F 81% 29.98 in 10.0 mi SE 10.4 mph - N/A   Overcast
9:56 AM 33.8 °F 27.7 °F 28.4 °F 81% 29.99 in 10.0 mi SE 6.9 mph - N/A   Overcast
10:16 AM 33.8 °F 26.4 °F 28.4 °F 81% 29.98 in 10.0 mi SSE 9.2 mph - N/A   Overcast
10:36 AM 33.8 °F 27.7 °F 28.4 °F 81% 29.98 in 10.0 mi SSE 6.9 mph - N/A   Overcast
10:56 AM 33.8 °F 27.7 °F 30.2 °F 87% 29.98 in 10.0 mi SE 6.9 mph - N/A   Overcast
11:16 AM 33.8 °F 28.6 °F 30.2 °F 87% 29.98 in 10.0 mi SE 5.8 mph - N/A   Overcast
11:36 AM 33.8 °F 28.6 °F 28.4 °F 81% 29.96 in 10.0 mi SE 5.8 mph - N/A   Overcast
11:56 AM 33.8 °F 28.6 °F 30.2 °F 87% 29.95 in 10.0 mi ESE 5.8 mph - N/A   Overcast
12:16 PM 33.8 °F 28.6 °F 30.2 °F 87% 29.95 in 10.0 mi SSE 5.8 mph - N/A   Overcast
12:36 PM 33.8 °F 30.8 °F 28.4 °F 81% 29.94 in 10.0 mi SE 3.5 mph - N/A   Overcast
12:56 PM 33.8 °F 27.7 °F 28.4 °F 81% 29.93 in 10.0 mi SE 6.9 mph - N/A   Overcast
1:16 PM 33.8 °F 26.4 °F 30.2 °F 87% 29.91 in 10.0 mi SE 9.2 mph - N/A   Overcast
1:36 PM 33.8 °F 25.8 °F 32.0 °F 93% 29.90 in 10.0 mi SE 10.4 mph - N/A   Overcast
1:56 PM 33.8 °F 28.6 °F 30.2 °F 87% 29.89 in 10.0 mi SE 5.8 mph - N/A   Overcast
2:16 PM 33.8 °F 28.6 °F 30.2 °F 87% 29.88 in 10.0 mi SSE 5.8 mph - N/A   Overcast
2:36 PM 33.8 °F 28.6 °F 30.2 °F 87% 29.87 in 10.0 mi SSE 5.8 mph - N/A   Overcast
2:56 PM 33.8 °F - 30.2 °F 87% 29.85 in 10.0 mi Calm Calm - N/A   Overcast
3:16 PM 32.0 °F - 30.2 °F 93% 29.84 in 10.0 mi Calm Calm - N/A   Overcast
3:36 PM 32.0 °F 27.5 °F 28.4 °F 87% 29.83 in 10.0 mi NNW 4.6 mph - N/A   Overcast
3:56 PM 32.0 °F 26.4 °F 30.2 °F 93% 29.82 in 10.0 mi NNW 5.8 mph - N/A   Overcast
4:16 PM 30.2 °F 25.4 °F 28.4 °F 93% 29.81 in 10.0 mi NNW 4.6 mph - N/A   Overcast
4:36 PM 30.2 °F 23.4 °F 28.4 °F 93% 29.79 in 10.0 mi NW 6.9 mph - N/A   Overcast
4:56 PM 30.2 °F 22.6 °F 28.4 °F 93% 29.77 in 10.0 mi NNW 8.1 mph - N/A   Overcast
5:16 PM 30.2 °F 24.3 °F 28.4 °F 93% 29.75 in 10.0 mi NNW 5.8 mph - N/A   Overcast
5:36 PM 30.2 °F 23.4 °F 28.4 °F 93% 29.74 in 10.0 mi NNW 6.9 mph - N/A   Overcast
5:56 PM 30.2 °F 22.6 °F 28.4 °F 93% 29.73 in 10.0 mi North 8.1 mph - N/A   Overcast
6:16 PM 30.2 °F 22.6 °F 28.4 °F 93% 29.72 in 10.0 mi NNW 8.1 mph - N/A   Overcast
6:36 PM 30.2 °F 21.9 °F 28.4 °F 93% 29.71 in 10.0 mi NNW 9.2 mph - N/A   Overcast
6:56 PM 30.2 °F 20.2 °F 28.4 °F 93% 29.69 in 10.0 mi NNW 12.7 mph - N/A   Overcast
7:16 PM 30.2 °F 21.3 °F 28.4 °F 93% 29.68 in 10.0 mi NNW 10.4 mph - N/A   Mostly Cloudy
7:36 PM 30.2 °F 21.3 °F 28.4 °F 93% 29.68 in 10.0 mi NNW 10.4 mph - N/A   Overcast
7:56 PM 30.2 °F 19.8 °F 28.4 °F 93% 29.66 in 10.0 mi NNW 13.8 mph - N/A   Overcast
8:16 PM 30.2 °F 21.9 °F 28.4 °F 93% 29.65 in 10.0 mi NNW 9.2 mph - N/A   Overcast
8:56 PM 30.2 °F 21.3 °F 26.6 °F 86% 29.64 in 10.0 mi NNW 10.4 mph - N/A   Overcast
9:16 PM 30.2 °F 20.8 °F 24.8 °F 80% 29.63 in 10.0 mi NNW 11.5 mph - N/A   Overcast
9:36 PM 30.2 °F 20.8 °F 26.6 °F 86% 29.62 in 10.0 mi NNW 11.5 mph - N/A   Overcast
9:56 PM 30.2 °F 20.2 °F 24.8 °F 80% 29.61 in 10.0 mi NNW 12.7 mph - N/A   Overcast
10:16 PM 30.2 °F 20.8 °F 24.8 °F 80% 29.61 in 10.0 mi NW 11.5 mph - N/A   Overcast
10:36 PM 28.4 °F 18.5 °F 24.8 °F 86% 29.61 in 10.0 mi NNW 11.5 mph - N/A   Mostly Cloudy
10:56 PM 28.4 °F 17.5 °F 24.8 °F 86% 29.62 in 10.0 mi NNW 13.8 mph - N/A   Overcast
11:16 PM 28.4 °F 18.5 °F 24.8 °F 86% 29.62 in 10.0 mi NNW 11.5 mph - N/A   Overcast
11:36 PM 28.4 °F 18.5 °F 24.8 °F 86% 29.62 in 10.0 mi NNW 11.5 mph - N/A   Overcast
11:56 PM 28.4 °F 19.7 °F 24.8 °F 86% 29.63 in 10.0 mi NNW 9.2 mph - N/A   Overcast